Location: Pedholt
(56.0260°N, 10.2097°E)
Time: 06:26:05
(UTC+00:00)

CZ-4 R/B - Pass Details

Date: 14 July 2020
Orbit: 682 x 752 km, 98.5° (Epoch: 14 August)

Event Time Altitude Azimuth Distance (km) Brightness Sun altitude
Rises 23:58:52 0° 16° (NNE) 3,079 9.1 -12.0°
Reaches altitude 10° 00:01:06 10° 18° (NNE) 2,165 7.8 -12.0°
Maximum altitude 00:05:51 82° 106° (ESE) 718 3.8 -11.9°
Enters shadow 00:09:37 17° 193° (SSW) 1,776 5.2 -11.8°
